Regional Weather Roundup
Issued by NWS Green Bay, WI

Home | Current Version | Previous Version | Graphics & Text | Print | Product List | Glossary Off
Versions: 1 2 3 4 5 6 7 8 9 10 11 12 13 14 15 16 17 18 19 20 21 22 23 24 25 26 27 28 29 30 31 32 33 34 35 36 37 38 39 40 41 42 43 44 45 46 47 48 49 50

000
ASUS43 KGRB 121911
RWRGRB

NORTH-CENTRAL AND NORTHEAST WISCONSIN REGIONAL WEATHER ROUNDUP
NATIONAL WEATHER SERVICE GREEN BAY WI
100 PM CST TUE DEC 12 2017

WIZ005-009-010>012-018-019-122000-
NORTH CENTRAL WISCONSIN

CITY           SKY/WX    TMP DP  RH WIND       PRES   REMARKS
IRONWOOD       LGT SNOW   9   3  77 SW10      30.00F WCI  -5
MANITOWISH WTR CLOUDY     9   2  74 W9        29.95F WCI  -5
ARBOR VITAE    CLOUDY    11   4  72 NW9       29.95F WCI  -1
EAGLE RIVER    CLOUDY    11   1  63 NW10      29.93F WCI  -2
LAND O LAKES   CLOUDY    12   4  70 NW6       29.93F HAZE    WCI   3
RHINELANDER    PTSUNNY   12   2  64 W13       29.95F WCI  -3
PHILLIPS       MOSUNNY    9  -1  62 NW6       29.99F WCI  -1
ANTIGO         PTSUNNY   12   2  65 NW8       29.95F WCI   0
TOMAHAWK       SUNNY     11   0  59 W8        29.98F WCI   0
MERRILL        SUNNY     14   0  55 W9        29.99F WCI   1
$$

WIZ013-073-122000-
NORTHEAST WISCONSIN

CITY           SKY/WX    TMP DP  RH WIND       PRES   REMARKS
IRON MOUNTAIN  CLOUDY    14   4  64 NW13      29.93F WCI   0
MARINETTE      NOT AVBL
OCONTO         CLOUDY    17   4  56 NW8       30.00F WCI   7
$$

WIZ017-030-035>037-045-122000-
CENTRAL WISCONSIN

CITY           SKY/WX    TMP DP  RH WIND       PRES   REMARKS
MEDFORD        CLOUDY    11  -1  58 NW8       29.99F WCI  -1
WAUSAU         SUNNY     13   2  61 W10       29.99F WCI   0
MOSINEE        MOSUNNY   12   1  62 NW12      30.01F WCI  -2
MARSHFIELD     CLOUDY    11   0  61 W13       30.01F WCI  -4
WISC RAPIDS    CLOUDY    13   1  59 NW8       30.05F WCI   2
STEVENS POINT  SUNNY     12   0  58 W8G16     30.02F WCI   1
WAUPACA        MOSUNNY   20   5  52 W12       30.03F WCI   8
SHAWANO        CLOUDY    19   6  56 NW9G16    30.01F WCI   8
CLINTONVILLE   NOT AVBL
WAUTOMA        SUNNY     16   3  56 NW15      30.05F WCI   1
$$

WIZ038-039-048-051-122000-
FOX VALLEY

CITY           SKY/WX    TMP DP  RH WIND       PRES   REMARKS
NWS GREEN BAY  FLURRIES  18   8  65 NW13      30.01F WCI   5
APPLETON       PTSUNNY   18   1  49 NW12      30.00F WCI   5
OSHKOSH        PTSUNNY   18   5  57 NW10G17   30.02F WCI   6
FOND DU LAC    PTSUNNY   18   3  52 NW9       30.03F WCI   7
$$

WIZ022-050-052-122000-
EAST CENTRAL WISCONSIN

CITY           SKY/WX    TMP DP  RH WIND       PRES   REMARKS
EPHRAIM        CLOUDY    16   3  57 NW14      29.96S WCI   1
WASHINGTON ISL CLOUDY    16   2  54 N15G21    29.95F WCI   1
STURGEON BAY   CLOUDY    15   5  64 NW16      29.99F WCI  -1
MANITOWOC      FLURRIES  17   5  59 NW15      30.01F WCI   2
SHEBOYGAN      CLOUDY    18   6  59 NW15      30.01F WCI   4
$$

LMZ563-521-522-541>543-122000-
LAKESHORE

STATION/POSITION TIME  TEMP    WIND        PRES    VSBY  WAVE
                       AIR SEA DIR/SP/G                  HT/PER
                 (UTC) (F)     (DEG/KT/KT) (MB)    (MI)  (FT/S)
SHEBOYGAN LKSHOR 1900   17     300/ 15/ 18 1017.3F
KEWAUNEE LKSHORE 1842   17     320/ 10/ 16 1015.1F
NORTHPORT PIER   1835   18     320/ 20     1014.6F
MENOMINEE LKSHOR 1842   16     330/ 16/ 19 1015.6F
$$




USA.gov is the U.S. government's official web portal to all federal, state and local government web resources and services.